ONEWEB-0699, 61605

Orbit data source: Space-Track

ONEWEB-0699, 61605 is a payload satellite owned by Eut. One Web (UK) in LEO that was launched on Sun, 20 Oct 2024 UTC via an FALCON 9 launch vehicle from the Air Force Western Test Range (AFWTR). Payload-class satellites include a variety of spacecraft equipped with specific instruments for various scientific and technological missions. These include communications satellites like Starlink; space stations such as the ISS; scientific satellites like the Hubble; Earth observation satellites from companies like Planet Labs, Umbra, and HawkEye 360; GPS; miniature CubeSats for education and research; and military/defense satellites.

Loading next visibility...
Identifier
61605, 2024-188M
Orbit
LEO
Country
Flag of UKUK
Related business
Manufacturer
One Web
Mission
Operational Commercial Communications
Bus & Motor
ARROW, Unknown motor
Mass
148 kg wet, ~140 kg dry
Launch date (UTC)
2024-10-20 (1 year ago)
Launch vehicle
FALCON 9
Launch site
Air Force Western Test Range (AFWTR)
Object type
Payload
Rocket body
Debris
Shape & HBR
Trap Box + 2 Pan, 6.7 m
Radar Cross Section
3.464 m², Large (>1 m²)

Expand to show TLE details & history
Last TLE update: 13 hours ago

TLE from 13 hours ago
0 ONEWEB-0699
1 61605U 24188M   26035.58253099  .00000227  00000-0  61535-3 0  9992
2 61605  87.8763  62.6870 0001820 115.4632 244.6684 13.10377095 65945
Epoch: 2026-02-04T13:58Z
TLE epoch observation values (Epoch: 2026-02-04T13:58:50.677Z)
Latitude
-0°
Longitude
78.22881°
Altitude
1,225.18 km
Speed
7.242 km/s
True Right ascension
04h 10m 44s
True Declination
0° 00' 00"
Sunlit
Object was in daylight at epoch
Visualization orbit readout
Latitude
Unknown
Longitude
Unknown
Altitude
Unknown
Speed
Unknown
Apparent Right ascension
Unknown
Apparent Declination
Unknown
Sunlit
N/A
Visualization observer readout
Local Sidereal Time
04:37:53
Azimuth
Unknown
Elevation
Unknown
Doppler factor
Unknown
Orbital elements
Apogee altitude
1,220.203 km
Perigee altitude
1,217.438 km
Semi-major axis
7,596.957 km
Eccentricity
0.00018
Inclination
87.8763°
RAAN
62.687°
Arg. of periapsis
115.4632°
True anomaly
244.64955°
Mean anomaly
244.6684°
Eccentric anomaly
244.65898°
Mean motion
3.27781 °/min
Orbital period
109.83 mins
BSTAR
0.00061535
Loading maneuver chart data...
Computing Atmospheric mass density...
Loading historical data...
Loading historical data...
Loading historical data...
Loading historical data...
Loading historical data...
Loading historical data...
Loading historical data...

Documentation

Showing up to 5 results
|